Lexington Weather

Lexington, Massachusetts, USA

39°F
1/23/2020 11:25am 
  • Lexington Conditions: Clear
  • Temperature: 39.0°F / 3.9°CWarmer 6.5°F than last hour.
  • Dew Point: 21.9°FIncreased 0.9°Fsince last hour.
  • Relative Humidity: 50%Decreased 12.0% since last hour.
  • Wind: Calm, 10-min avg: Calm, gust: None
  • Barometer: 30.32 inFalling 0.02  inHg/hr Falling Slowly
  • Visibility: 10 miles
  • Rain Today: 0.00 in
  •   

Regional Weather Roundup
for Boston / Norton, MA

        
000
ASUS41 KBOX 222000
RWRBOX

REGIONAL WEATHER ROUNDUP
NATIONAL WEATHER SERVICE BOSTON/NORTON MA
300 PM EST WED JAN 22 2020

NOTE:  "FAIR" INDICATES FEW OR NO CLOUDS BELOW 12,000 FEET WITH NO 
SIGNIFICANT WEATHER AND/OR OBSTRUCTIONS TO VISIBILITY.

MAZALL-222100-
EASTERN MASSACHUSETTS
  
CITY           SKY/WX    TMP DP  RH WIND       PRES   REMARKS
BOSTON         FAIR      39  15  37 W7        30.39S                  
BEVERLY        FAIR      35  15  44 W6        30.38R WCI  30          
LAWRENCE       FAIR      34  16  47 SW7       30.39R WCI  28          
BEDFORD        FAIR      36  14  40 W8        30.37S WCI  30          
BLUE HILL        N/A     32  15  49 W6        30.35R WCI  26          
NORWOOD        FAIR      39  15  37 VRB6      30.39R                  
MARSHFIELD     NOT AVBL                                               
PLYMOUTH       FAIR      35  15  44 SW6       30.39R WCI  30          
TAUNTON        FAIR      36  15  42 VRB3      30.39R                  
NEW BEDFORD    FAIR      35  15  44 W5        30.39R WCI  31          
$$

MAZALL-222100-
CAPE COD AND THE ISLANDS
  
CITY           SKY/WX    TMP DP  RH WIND       PRES   REMARKS
FALMOUTH       SUNNY     34   9  35 W8        30.40R WCI  27          
HYANNIS        NOT AVBL                                               
CHATHAM        FAIR      33  16  49 SW7       30.41R WCI  27          
PROVINCETOWN   FAIR      33  16  49 CALM      30.41R                  
NANTUCKET      FAIR      34  17  50 W7        30.41R WCI  28          
MARTHAS VNYRD  FAIR      34  12  40 W7        30.40S WCI  28          
$$
 
MAZALL-222100-
CENTRAL AND WESTERN MASSACHUSETTS
  
CITY           SKY/WX    TMP DP  RH WIND       PRES   REMARKS
WORCESTER      FAIR      31  14  49 W12       30.34R WCI  22          
FITCHBURG      FAIR      36  15  42 W5        30.37R                  
ORANGE         FAIR      35  15  44 E3        30.36F                  
SPRINGFIELD    MOSUNNY   35  16  44 CALM      30.37F                  
WESTFIELD      NOT AVBL                                               
NORTH ADAMS    FAIR      32  18  56 W7        30.37S WCI  26          
PITTSFIELD     FAIR      31  17  56 SW5       30.33S WCI  26          
$$
 
RIZALL-222100-
RHODE ISLAND
  
CITY           SKY/WX    TMP DP  RH WIND       PRES   REMARKS
PROVIDENCE     FAIR      36  18  48 SE6       30.40R WCI  31          
NEWPORT        FAIR      34  18  52 S5        30.39  WCI  30          
BLOCK ISLAND   FAIR      32  21  64 W8        30.42R WCI  25          
SMITHFIELD     FAIR      34  15  46 VRB6      30.38R WCI  29          
WESTERLY       FAIR      37  19  48 SW7       30.41R WCI  32          
$$
 
CTZALL-222100-
CONNECTICUT
  
CITY           SKY/WX    TMP DP  RH WIND       PRES   REMARKS
BRADLEY INTL   FAIR      34  18  52 SE5       30.39S WCI  30          
HARTFORD       FAIR      36  17  46 CALM      30.40S                  
BRIDGEPORT     FAIR      36  19  50 SW13      30.42S WCI  27          
DANBURY        FAIR      36  16  44 CALM      30.41R                  
GROTON         NOT AVBL                                               
NEW HAVEN      FAIR      36  20  52 SW7       30.42R WCI  30          
CHESTER        NOT AVBL                                               
MERIDEN        FAIR      37  16  42 W8        30.40S WCI  31          
WILLIMANTIC    FAIR      34  17  50 NW3       30.40S                  
OXFORD         FAIR      34  16  47 W5        30.38S WCI  30          
$$

MEZ002-015-021-024-NHZ003-005-008-011-012-014-VTZ005-008-222100-
NORTHERN NEW ENGLAND
  
CITY           SKY/WX    TMP DP  RH WIND       PRES   REMARKS
PORTLAND ME    FAIR      33  13  43 E5        30.37R WCI  29          
BANGOR ME      FAIR      32  16  51 S8        30.34S WCI  25          
CONCORD NH     FAIR      35  16  45 CALM      30.35S                  
MANCHESTER NH  FAIR      37  16  42 CALM      30.35S                  
NASHUA NH      FAIR      36  16  44 CALM      30.37S                  
PORTSMOUTH NH  MOSUNNY   35  14  43 W5        30.35R WCI  30          
JAFFREY NH     FAIR      33  14  45 SW6       30.32S WCI  28          
KEENE NH       FAIR      33  15  47 CALM      30.36S                  
BURLINGTON VT  PTSUNNY   34  20  56 S13       30.31S WCI  25          
MT. WASHINGTON MOSUNNY   14   3  62 NW44G54     N/A  WCI -10          
$$

NYZ052-076-222100-
EASTERN NEW YORK
  
CITY           SKY/WX    TMP DP  RH WIND       PRES   REMARKS
ALBANY         FAIR      33  18  53 S3        30.40F                  
NEW YORK CITY  FAIR      38  16  40 NW6       30.41S                  
$$
 
ANZALL-222100-
MARINE OBSERVATIONS
  
STATION/POSITION TIME  TEMP    WIND        PRES    VSBY  WAVE
                       AIR SEA DIR/SP/G                  HT/PER
                 (UTC) (F)     (DEG/KT/KT) (MB)    (MI)  (FT/S)
BOSTON BUOY      1850   33 42  270/  8/ 10 1028.7          1/10
BUZZARDS BAY     1900   31     250/  6/  8 1029.8F
NANTUCKET SOUND  1940                        N/A
MASS BAY-STELLWA 1904   32 42  240/  6/ 10 1027.3F  1 7/8  2/ 8
ISLE OF SHOALS   1900   31     220/  4/  5 1028.2F
S OF BLOCK IS    1930      46                N/A           2/ 9
$$

......................KEY.........................
  SKY/WX - SKY CONDITION/PRESENT WEATHER
  TMP    - TEMPERATURE IN FAHRENHEIT
  DWPT   - DEWPOINT IN FAHRENHEIT
  RH     - RELATIVE HUMIDITY IN PERCENT
  WIND   - DIRECTION AND SPEED IN MPH
  PRES   - MEAN SEA LEVEL PRESSURE IN INCHES OF HG
  WCI    - WIND CHILL INDEX
  VSB    - VISIBILITY IN MILES
  HX     - HEAT INDEX
  TC     - TEMPERATURE IN CELSIUS
  VRB    - VARIABLE WIND DIRECTION
  N/A    - NOT AVAILABLE
  
      

Other recent Regional Weather Roundups

Thu Jan 23, 11:10am

Thu Jan 23, 11:00am

Thu Jan 23, 10:10am

Thu Jan 23, 10:00am

Thu Jan 23, 9:10am

Thu Jan 23, 9:00am

Thu Jan 23, 8:10am

Thu Jan 23, 8:00am

Thu Jan 23, 7:10am

Thu Jan 23, 7:01am

Thu Jan 23, 6:10am

Thu Jan 23, 6:00am

Thu Jan 23, 5:10am

Thu Jan 23, 5:00am

Thu Jan 23, 4:10am

Thu Jan 23, 4:01am

Thu Jan 23, 3:10am

Thu Jan 23, 3:00am

Thu Jan 23, 2:10am

Thu Jan 23, 2:00am

Thu Jan 23, 1:10am

Thu Jan 23, 1:00am

Thu Jan 23, 12:10am

Thu Jan 23, 12:00am

Wed Jan 22, 11:10pm

Wed Jan 22, 11:01pm

Wed Jan 22, 10:10pm

Wed Jan 22, 10:00pm

Wed Jan 22, 9:10pm

Wed Jan 22, 9:00pm

Wed Jan 22, 8:10pm

Wed Jan 22, 8:01pm

Wed Jan 22, 7:10pm

Wed Jan 22, 7:00pm

Wed Jan 22, 6:10pm

Wed Jan 22, 6:01pm

Wed Jan 22, 5:10pm

Wed Jan 22, 5:00pm

Wed Jan 22, 4:10pm

Wed Jan 22, 4:00pm

Wed Jan 22, 3:10pm

Wed Jan 22, 2:10pm

Wed Jan 22, 2:00pm

Wed Jan 22, 1:10pm

Wed Jan 22, 1:00pm

Wed Jan 22, 12:10pm

Wed Jan 22, 12:00pm

Wed Jan 22, 11:10am

Wed Jan 22, 11:00am

Wed Jan 22, 10:10am

Wed Jan 22, 10:01am

Wed Jan 22, 9:10am

Wed Jan 22, 9:00am

Wed Jan 22, 8:10am

Wed Jan 22, 8:00am

Wed Jan 22, 7:10am

Wed Jan 22, 7:00am

Wed Jan 22, 6:10am

Wed Jan 22, 6:00am

Wed Jan 22, 5:10am

Wed Jan 22, 5:00am

Wed Jan 22, 4:10am

Wed Jan 22, 4:00am

Wed Jan 22, 3:10am

Wed Jan 22, 3:01am

Wed Jan 22, 2:10am

Wed Jan 22, 2:00am

Wed Jan 22, 1:10am

Wed Jan 22, 1:00am

Wed Jan 22, 12:10am

Wed Jan 22, 12:00am

Tue Jan 21, 11:10pm

Tue Jan 21, 11:00pm

Tue Jan 21, 10:10pm

Tue Jan 21, 10:00pm

Tue Jan 21, 9:10pm

Tue Jan 21, 9:01pm

Tue Jan 21, 8:10pm

Tue Jan 21, 8:00pm

Tue Jan 21, 7:10pm

Tue Jan 21, 7:00pm

Tue Jan 21, 6:10pm

Tue Jan 21, 6:01pm

Tue Jan 21, 5:10pm

Tue Jan 21, 5:00pm

Tue Jan 21, 4:10pm

Tue Jan 21, 4:00pm

Tue Jan 21, 3:10pm

Tue Jan 21, 3:01pm

Tue Jan 21, 2:10pm

Tue Jan 21, 2:00pm

Tue Jan 21, 1:10pm

Tue Jan 21, 1:00pm

Tue Jan 21, 12:10pm

Tue Jan 21, 12:00pm

Tue Jan 21, 11:10am

Tue Jan 21, 11:00am

Tue Jan 21, 10:10am

Tue Jan 21, 10:00am

Tue Jan 21, 9:10am

Tue Jan 21, 9:00am

Tue Jan 21, 8:10am

Tue Jan 21, 8:00am

Tue Jan 21, 7:10am

Tue Jan 21, 7:00am

Tue Jan 21, 6:10am

Tue Jan 21, 6:00am

Tue Jan 21, 5:10am

Tue Jan 21, 5:00am

Tue Jan 21, 4:10am

Tue Jan 21, 4:00am

Tue Jan 21, 3:10am

Tue Jan 21, 3:00am

Tue Jan 21, 2:10am

Tue Jan 21, 2:01am

Tue Jan 21, 1:10am

Tue Jan 21, 1:00am

Tue Jan 21, 12:10am

Tue Jan 21, 12:00am

Mon Jan 20, 11:10pm

Mon Jan 20, 11:00pm

Mon Jan 20, 10:10pm

Mon Jan 20, 10:00pm

Mon Jan 20, 9:10pm

Mon Jan 20, 9:00pm

Mon Jan 20, 8:10pm

Mon Jan 20, 8:00pm

Mon Jan 20, 7:10pm

Mon Jan 20, 7:00pm

Mon Jan 20, 6:10pm

Mon Jan 20, 6:00pm

Mon Jan 20, 5:10pm

Mon Jan 20, 5:00pm

Mon Jan 20, 4:10pm

Mon Jan 20, 4:01pm

Mon Jan 20, 3:10pm

Mon Jan 20, 3:00pm

Mon Jan 20, 2:10pm

Mon Jan 20, 2:00pm

Mon Jan 20, 1:10pm

Mon Jan 20, 1:00pm

Mon Jan 20, 12:10pm

Mon Jan 20, 12:00pm

Meta data:

ID: 3fca3398-258d-4e26-a684-f727514d3157
Link: https://api.weather.gov/products/3fca3398-258d-4e26-a684-f727514d3157